| time (UTC) | temp F | wind direction | speed MPH | gust MPH | rain 1hr in | rain 24hr in | rain mn in | humidity % | barometer mb |
| 20260508134909 | 66 | 248 | 3.0 | 6.0 | 0.00 | 0.00 | 0.00 | 31 | 1026.7 |
| 20260508134346 | 62 | 248 | 3.0 | 6.0 | 0.00 | 0.00 | 0.00 | 34 | 1026.6 |
| 20260508134207 | 59 | 327 | 3.0 | 10.0 | 0.00 | 0.00 | 0.00 | 34 | 1026.6 |
| 20260508133506 | 57 | 84 | 5.0 | 6.0 | 0.00 | 0.00 | 0.00 | 35 | 1026.7 |
| 20260508133242 | 57 | 334 | 5.0 | 8.0 | 0.00 | 0.00 | 0.00 | 35 | 1026.6 |
| 20260508132803 | 58 | 2 | 7.0 | 12.0 | 0.00 | 0.00 | 0.00 | 36 | 1026.6 |
| 20260508132150 | 57 | 294 | 3.0 | 3.0 | 0.00 | 0.00 | 0.00 | 36 | 1026.6 |
| 20260508132101 | 56 | 252 | 1.0 | 3.0 | 0.00 | 0.00 | 0.00 | 36 | 1026.6 |
| 20260508131411 | 55 | 333 | 5.0 | 8.0 | 0.00 | 0.00 | 0.00 | 36 | 1026.6 |
| 20260508131047 | 55 | 100 | 5.0 | 10.0 | 0.00 | 0.00 | 0.00 | 35 | 1026.6 |
| 20260508130708 | 56 | 281 | 2.0 | 5.0 | 0.00 | 0.00 | 0.00 | 35 | 1026.7 |
| 20260508125943 | 59 | 331 | 3.0 | 6.0 | 0.00 | 0.00 | 0.00 | 34 | 1026.7 |
| 20260508125306 | 64 | 253 | 5.0 | 5.0 | 0.00 | 0.00 | 0.00 | 31 | 1026.5 |
| 20260508124851 | 67 | 308 | 3.0 | 3.0 | 0.00 | 0.00 | 0.00 | 30 | 1026.5 |
| 20260508124612 | 70 | 259 | 6.0 | 9.0 | 0.00 | 0.00 | 0.00 | 29 | 1026.5 |
| 20260508123910 | 70 | 22 | 3.0 | 7.0 | 0.00 | 0.00 | 0.00 | 30 | 1026.6 |
| 20260508123746 | 70 | 334 | 2.0 | 8.0 | 0.00 | 0.00 | 0.00 | 30 | 1026.5 |
| 20260508123207 | 68 | 315 | 2.0 | 6.0 | 0.00 | 0.00 | 0.00 | 30 | 1026.7 |
| 20260508122655 | 67 | 286 | 7.0 | 10.0 | 0.00 | 0.00 | 0.00 | 31 | 1026.7 |
| 20260508122504 | 67 | 294 | 7.0 | 12.0 | 0.00 | 0.00 | 0.00 | 30 | 1026.7 |
| 20260508121802 | 68 | 250 | 5.0 | 9.0 | 0.00 | 0.00 | 0.00 | 31 | 1026.8 |
| 20260508121550 | 67 | 249 | 2.0 | 2.0 | 0.00 | 0.00 | 0.00 | 31 | 1026.6 |
| 20260508121111 | 66 | 282 | 3.0 | 8.0 | 0.00 | 0.00 | 0.00 | 31 | 1026.7 |
| 20260508120446 | 66 | 259 | 2.0 | 8.0 | 0.00 | 0.00 | 0.00 | 31 | 1026.7 |
| 20260508120408 | 66 | 319 | 5.0 | 6.0 | 0.00 | 0.00 | 0.00 | 31 | 1026.8 |
| 20260508115705 | 67 | 331 | 6.0 | 13.0 | 0.00 | 0.00 | 0.00 | 31 | 1026.5 |
| 20260508115341 | 66 | 298 | 5.0 | 10.0 | 0.00 | 0.00 | 0.00 | 31 | 1026.4 |
| 20260508115002 | 66 | 262 | 5.0 | 9.0 | 0.00 | 0.00 | 0.00 | 31 | 1026.5 |
| 20260508114251 | 66 | 293 | 5.0 | 6.0 | 0.00 | 0.00 | 0.00 | 30 | 1026.4 |
| 20260508113611 | 66 | 21 | 3.0 | 7.0 | 0.00 | 0.00 | 0.00 | 32 | 1026.4 |
| 20260508112910 | 65 | 343 | 3.0 | 7.0 | 0.00 | 0.00 | 0.00 | 33 | 1026.7 |
| 20260508112208 | 64 | 325 | 5.0 | 8.0 | 0.00 | 0.00 | 0.00 | 33 | 1026.6 |
| 20260508111506 | 64 | 253 | 1.0 | 2.0 | 0.00 | 0.00 | 0.00 | 33 | 1026.6 |
| 20260508110803 | 62 | 245 | 3.0 | 7.0 | 0.00 | 0.00 | 0.00 | 35 | 1026.5 |
| 20260508110112 | 62 | 4 | 5.0 | 7.0 | 0.00 | 0.00 | 0.00 | 35 | 1026.5 |
| 20260508105410 | 60 | 251 | 8.0 | 12.0 | 0.00 | 0.00 | 0.00 | 36 | 1026.4 |
| 20260508104706 | 60 | 332 | 3.0 | 10.0 | 0.00 | 0.00 | 0.00 | 36 | 1026.4 |
| 20260508104005 | 59 | 1 | 2.0 | 7.0 | 0.00 | 0.00 | 0.00 | 37 | 1026.5 |
| 20260508103303 | 57 | 249 | 6.0 | 14.0 | 0.00 | 0.00 | 0.00 | 38 | 1026.3 |
| 20260508102612 | 56 | 17 | 10.0 | 16.0 | 0.00 | 0.00 | 0.00 | 38 | 1026.4 |
| 20260508101910 | 56 | 254 | 8.0 | 10.0 | 0.00 | 0.00 | 0.00 | 38 | 1026.3 |
| 20260508101208 | 55 | 328 | 7.0 | 9.0 | 0.00 | 0.00 | 0.00 | 38 | 1026.3 |
| 20260508100504 | 56 | 258 | 8.0 | 13.0 | 0.00 | 0.00 | 0.00 | 38 | 1026.2 |
| 20260508095803 | 55 | 257 | 6.0 | 12.0 | 0.00 | 0.00 | 0.00 | 38 | 1026.2 |
| 20260508095112 | 55 | 289 | 8.0 | 16.0 | 0.00 | 0.00 | 0.00 | 38 | 1026.3 |
| 20260508094409 | 55 | 22 | 5.0 | 5.0 | 0.00 | 0.00 | 0.00 | 41 | 1026.3 |
| 20260508093707 | 55 | 314 | 3.0 | 7.0 | 0.00 | 0.00 | 0.00 | 40 | 1026.3 |
| 20260508093005 | 55 | 104 | 6.0 | 9.0 | 0.00 | 0.00 | 0.00 | 40 | 1026.2 |
| 20260508092312 | 55 | 249 | 6.0 | 6.0 | 0.00 | 0.00 | 0.00 | 40 | 1026.2 |
| 20260508091602 | 56 | 283 | 5.0 | 10.0 | 0.00 | 0.00 | 0.00 | 40 | 1026.3 |
| 20260508090912 | 56 | 324 | 5.0 | 12.0 | 0.00 | 0.00 | 0.00 | 40 | 1026.2 |
| 20260508090210 | 55 | 259 | 3.0 | 6.0 | 0.00 | 0.00 | 0.00 | 38 | 1026.1 |
| 20260508085508 | 57 | 303 | 3.0 | 10.0 | 0.00 | 0.00 | 0.00 | 40 | 1026.1 |
| 20260508084806 | 57 | 237 | 1.0 | 6.0 | 0.00 | 0.00 | 0.00 | 40 | 1026.1 |
| 20260508084103 | 57 | 1 | 7.0 | 16.0 | 0.00 | 0.00 | 0.00 | 40 | 1026.1 |
| 20260508083412 | 57 | 226 | 5.0 | 10.0 | 0.00 | 0.00 | 0.00 | 42 | 1026.0 |
| 20260508082710 | 57 | 249 | 5.0 | 9.0 | 0.00 | 0.00 | 0.00 | 41 | 1026.1 |
| 20260508082007 | 57 | 276 | 6.0 | 10.0 | 0.00 | 0.00 | 0.00 | 41 | 1026.0 |
| 20260508081305 | 58 | 281 | 6.0 | 12.0 | 0.00 | 0.00 | 0.00 | 41 | 1026.0 |
| 20260508080601 | 58 | 8 | 2.0 | 9.0 | 0.00 | 0.00 | 0.00 | 43 | 1025.8 |
| 20260508075911 | 57 | 307 | 7.0 | 7.0 | 0.00 | 0.00 | 0.00 | 42 | 1025.8 |
| 20260508075209 | 58 | 258 | 5.0 | 13.0 | 0.00 | 0.00 | 0.00 | 42 | 1025.8 |
| 20260508074506 | 58 | 311 | 3.0 | 7.0 | 0.00 | 0.00 | 0.00 | 44 | 1025.5 |
| 20260508073804 | 57 | 248 | 2.0 | 2.0 | 0.00 | 0.00 | 0.00 | 44 | 1025.6 |
| 20260508073103 | 57 | 291 | 5.0 | 13.0 | 0.00 | 0.00 | 0.00 | 45 | 1025.6 |
| 20260508072412 | 57 | 307 | 6.0 | 10.0 | 0.00 | 0.00 | 0.00 | 44 | 1025.4 |
| 20260508071709 | 57 | 258 | 5.0 | 3.0 | 0.00 | 0.00 | 0.00 | 46 | 1025.3 |
| 20260508071006 | 57 | 286 | 3.0 | 5.0 | 0.00 | 0.00 | 0.00 | 47 | 1025.3 |
| 20260508070304 | 56 | 296 | 5.0 | 9.0 | 0.00 | 0.00 | 0.00 | 47 | 1025.3 |
| 20260508065602 | 54 | 284 | 5.0 | 8.0 | 0.00 | 0.00 | 0.00 | 49 | 1025.2 |
| 20260508064911 | 54 | 266 | 6.0 | 8.0 | 0.00 | 0.00 | 0.00 | 49 | 1025.1 |
| 20260508064209 | 54 | 356 | 5.0 | 10.0 | 0.00 | 0.00 | 0.00 | 49 | 1024.9 |
| 20260508063505 | 53 | 357 | 3.0 | 6.0 | 0.00 | 0.00 | 0.00 | 50 | 1024.9 |
| 20260508062803 | 52 | 246 | 3.0 | 5.0 | 0.00 | 0.00 | 0.00 | 52 | 1024.9 |
| 20260508062101 | 52 | 254 | 6.0 | 9.0 | 0.00 | 0.00 | 0.00 | 53 | 1025.0 |
| 20260508061410 | 51 | 18 | 5.0 | 5.0 | 0.00 | 0.00 | 0.00 | 54 | 1024.7 |
| 20260508060707 | 50 | 4 | 3.0 | 5.0 | 0.00 | 0.00 | 0.00 | 55 | 1024.6 |
| 20260508060005 | 49 | 250 | 5.0 | 8.0 | 0.00 | 0.00 | 0.00 | 56 | 1024.7 |
| 20260508055305 | 49 | 21 | 6.0 | 7.0 | 0.00 | 0.00 | 0.00 | 57 | 1024.5 |
| 20260508054612 | 49 | 253 | 3.0 | 7.0 | 0.00 | 0.00 | 0.00 | 59 | 1024.5 |
| 20260508053909 | 48 | 265 | 3.0 | 5.0 | 0.00 | 0.00 | 0.00 | 61 | 1024.5 |
| 20260508053207 | 47 | 261 | 5.0 | 9.0 | 0.00 | 0.00 | 0.00 | 62 | 1024.5 |
| 20260508052505 | 46 | 334 | 5.0 | 5.0 | 0.00 | 0.00 | 0.00 | 63 | 1024.3 |
| 20260508051804 | 46 | 311 | 2.0 | 5.0 | 0.00 | 0.00 | 0.00 | 65 | 1024.2 |
| 20260508051102 | 45 | 250 | 1.0 | 5.0 | 0.00 | 0.00 | 0.00 | 65 | 1024.1 |
| 20260508050411 | 45 | 335 | 2.0 | 5.0 | 0.00 | 0.00 | 0.00 | 67 | 1023.9 |
| 20260508045709 | 44 | 288 | 3.0 | 5.0 | 0.00 | 0.00 | 0.00 | 68 | 1023.9 |
| 20260508045007 | 43 | 330 | 6.0 | 8.0 | 0.00 | 0.00 | 0.00 | 69 | 1023.8 |
| 20260508044303 | 42 | 5 | 5.0 | 8.0 | 0.00 | 0.00 | 0.00 | 69 | 1023.8 |
| 20260508043601 | 42 | 256 | 5.0 | 10.0 | 0.00 | 0.00 | 0.00 | 69 | 1023.7 |
| 20260508042912 | 42 | 344 | 5.0 | 9.0 | 0.00 | 0.00 | 0.00 | 69 | 1023.7 |
| 20260508042211 | 42 | 333 | 3.0 | 9.0 | 0.00 | 0.00 | 0.00 | 70 | 1023.5 |
| 20260508041509 | 41 | 265 | 3.0 | 7.0 | 0.00 | 0.00 | 0.00 | 70 | 1023.5 |
| 20260508040805 | 41 | 8 | 3.0 | 6.0 | 0.00 | 0.00 | 0.00 | 70 | 1023.3 |
| 20260508040104 | 40 | 253 | 3.0 | 5.0 | 0.00 | 0.00 | 0.00 | 70 | 1023.2 |
| 20260508035403 | 40 | 284 | 5.0 | 7.0 | 0.00 | 0.00 | 0.00 | 71 | 1023.2 |
| 20260508034701 | 39 | 313 | 7.0 | 6.0 | 0.00 | 0.00 | 0.00 | 72 | 1023.1 |
| 20260508034011 | 39 | 253 | 3.0 | 6.0 | 0.00 | 0.00 | 0.00 | 72 | 1023.1 |
| 20260508033308 | 38 | 250 | 1.0 | 5.0 | 0.00 | 0.00 | 0.00 | 72 | 1023.0 |
| 20260508032606 | 38 | 252 | 2.0 | 3.0 | 0.00 | 0.00 | 0.00 | 73 | 1022.9 |
| 20260508031905 | 37 | 74 | 2.0 | 3.0 | 0.00 | 0.00 | 0.00 | 74 | 1023.0 |
| 20260508031204 | 36 | 248 | 2.0 | 3.0 | 0.00 | 0.00 | 0.00 | 75 | 1022.9 |
| 20260508030502 | 36 | 248 | 1.0 | 6.0 | 0.00 | 0.00 | 0.00 | 76 | 1022.9 |
| 20260508025811 | 35 | 249 | 1.0 | 3.0 | 0.00 | 0.00 | 0.00 | 76 | 1022.8 |
| 20260508025109 | 34 | 248 | 1.0 | 2.0 | 0.00 | 0.00 | 0.00 | 76 | 1022.8 |
| 20260508024406 | 34 | 248 | 0.0 | 1.0 | 0.00 | 0.00 | 0.00 | 76 | 1022.7 |
| 20260508023704 | 34 | 248 | 1.0 | 5.0 | 0.00 | 0.00 | 0.00 | 76 | 1022.5 |
| 20260508023002 | 33 | 248 | 1.0 | 2.0 | 0.00 | 0.00 | 0.00 | 75 | 1022.4 |
| 20260508022312 | 33 | 248 | 0.0 | 0.0 | 0.00 | 0.00 | 0.00 | 75 | 1022.3 |
| 20260508021611 | 34 | 248 | 0.0 | 2.0 | 0.00 | 0.00 | 0.00 | 74 | 1022.2 |
| 20260508020909 | 34 | 248 | 1.0 | 3.0 | 0.00 | 0.00 | 0.00 | 75 | 1022.1 |
| 20260508020206 | 34 | 260 | 0.0 | 3.0 | 0.00 | 0.00 | 0.00 | 74 | 1022.1 |
| 20260508015505 | 34 | 248 | 1.0 | 3.0 | 0.00 | 0.00 | 0.00 | 74 | 1022.0 |
| 20260508014802 | 34 | 248 | 1.0 | 2.0 | 0.00 | 0.00 | 0.00 | 73 | 1021.9 |
| 20260508014112 | 35 | 248 | 0.0 | 1.0 | 0.00 | 0.00 | 0.00 | 72 | 1021.8 |
| 20260508013410 | 35 | 248 | 1.0 | 2.0 | 0.00 | 0.00 | 0.00 | 72 | 1021.8 |
| 20260508012707 | 35 | 11 | 5.0 | 6.0 | 0.00 | 0.00 | 0.00 | 73 | 1021.8 |
| 20260508012005 | 35 | 237 | 1.0 | 3.0 | 0.00 | 0.00 | 0.00 | 71 | 1021.6 |
| 20260508011302 | 35 | 248 | 1.0 | 2.0 | 0.00 | 0.00 | 0.00 | 70 | 1021.5 |
| 20260508010611 | 35 | 248 | 0.0 | 2.0 | 0.00 | 0.00 | 0.00 | 69 | 1021.5 |
| 20260508005910 | 36 | 248 | 1.0 | 1.0 | 0.00 | 0.00 | 0.00 | 69 | 1021.4 |
| 20260508005207 | 36 | 248 | 0.0 | 2.0 | 0.00 | 0.00 | 0.00 | 68 | 1021.4 |
| 20260508004505 | 37 | 248 | 1.0 | 2.0 | 0.00 | 0.00 | 0.00 | 68 | 1021.4 |
| 20260508003802 | 37 | 255 | 2.0 | 6.0 | 0.00 | 0.00 | 0.00 | 68 | 1021.2 |
| 20260508003112 | 37 | 250 | 2.0 | 5.0 | 0.00 | 0.00 | 0.00 | 68 | 1021.2 |
| 20260508002410 | 37 | 255 | 2.0 | 6.0 | 0.00 | 0.00 | 0.00 | 68 | 1021.1 |
| 20260508001707 | 37 | 248 | 1.0 | 1.0 | 0.00 | 0.00 | 0.00 | 67 | 1020.9 |
| 20260508001005 | 37 | 248 | 3.0 | 3.0 | 0.00 | 0.00 | 0.00 | 66 | 1020.8 |
| 20260508000301 | 37 | 258 | 3.0 | 5.0 | 0.00 | 0.00 | 0.00 | 67 | 1020.7 |
| 20260507235612 | 38 | 248 | 0.0 | 2.0 | 0.00 | 0.00 | 0.00 | 66 | 1020.6 |
| 20260507234909 | 37 | 263 | 1.0 | 3.0 | 0.00 | 0.00 | 0.00 | 65 | 1020.5 |
| 20260507234206 | 37 | 248 | 1.0 | 3.0 | 0.00 | 0.00 | 0.00 | 66 | 1020.4 |
| 20260507233504 | 37 | 293 | 2.0 | 3.0 | 0.00 | 0.00 | 0.00 | 65 | 1020.3 |
| 20260507232802 | 37 | 248 | 1.0 | 3.0 | 0.00 | 0.00 | 0.00 | 65 | 1020.2 |
| 20260507232111 | 37 | 243 | 2.0 | 3.0 | 0.00 | 0.00 | 0.00 | 66 | 1020.1 |
| 20260507231409 | 37 | 248 | 1.0 | 1.0 | 0.00 | 0.00 | 0.00 | 66 | 1019.9 |
| 20260507230706 | 37 | 248 | 0.0 | 3.0 | 0.00 | 0.00 | 0.00 | 65 | 1019.8 |
| 20260507230005 | 37 | 248 | 0.0 | 1.0 | 0.00 | 0.00 | 0.00 | 65 | 1019.8 |
| 20260507225306 | 37 | 248 | 0.0 | 1.0 | 0.00 | 0.00 | 0.00 | 64 | 1019.7 |
| 20260507224602 | 37 | 248 | 0.0 | 1.0 | 0.00 | 0.00 | 0.00 | 64 | 1019.6 |
| 20260507223901 | 37 | 248 | 1.0 | 5.0 | 0.00 | 0.00 | 0.00 | 64 | 1019.6 |
| 20260507223211 | 37 | 248 | 0.0 | 0.0 | 0.00 | 0.00 | 0.00 | 62 | 1019.5 |
| 20260507222510 | 37 | 248 | 0.0 | 0.0 | 0.00 | 0.00 | 0.00 | 62 | 1019.4 |
| 20260507221808 | 37 | 248 | 0.0 | 0.0 | 0.00 | 0.00 | 0.00 | 62 | 1019.4 |
| 20260507221105 | 37 | 248 | 0.0 | 0.0 | 0.00 | 0.00 | 0.00 | 62 | 1019.4 |
| 20260507220403 | 36 | 248 | 1.0 | 0.0 | 0.00 | 0.00 | 0.00 | 63 | 1019.1 |
| 20260507215702 | 36 | 248 | 0.0 | 1.0 | 0.00 | 0.00 | 0.00 | 62 | 1019.0 |
| 20260507215012 | 36 | 248 | 0.0 | 0.0 | 0.00 | 0.00 | 0.00 | 62 | 1018.9 |
| 20260507214311 | 36 | 248 | 0.0 | 2.0 | 0.00 | 0.00 | 0.00 | 61 | 1018.8 |
| 20260507213607 | 36 | 248 | 0.0 | 1.0 | 0.00 | 0.00 | 0.00 | 61 | 1018.7 |
| 20260507212907 | 36 | 248 | 1.0 | 1.0 | 0.00 | 0.00 | 0.00 | 60 | 1018.6 |
| 20260507212203 | 36 | 248 | 1.0 | 2.0 | 0.00 | 0.00 | 0.00 | 59 | 1018.5 |
| 20260507211501 | 37 | 248 | 0.0 | 0.0 | 0.00 | 0.00 | 0.00 | 59 | 1018.3 |
| 20260507210811 | 37 | 248 | 0.0 | 0.0 | 0.00 | 0.00 | 0.00 | 58 | 1018.2 |
| 20260507210107 | 37 | 248 | 0.0 | 0.0 | 0.00 | 0.00 | 0.00 | 58 | 1018.2 |
| 20260507205406 | 37 | 248 | 0.0 | 0.0 | 0.00 | 0.00 | 0.00 | 57 | 1018.1 |
| 20260507204704 | 37 | 248 | 0.0 | 0.0 | 0.00 | 0.00 | 0.00 | 57 | 1018.0 |
| 20260507204002 | 37 | 248 | 0.0 | 1.0 | 0.00 | 0.00 | 0.00 | 57 | 1017.9 |
| 20260507203312 | 38 | 248 | 0.0 | 0.0 | 0.00 | 0.00 | 0.00 | 57 | 1017.9 |
| 20260507202611 | 38 | 248 | 0.0 | 0.0 | 0.00 | 0.00 | 0.00 | 57 | 1017.8 |
| 20260507201909 | 38 | 248 | 0.0 | 0.0 | 0.00 | 0.00 | 0.00 | 57 | 1017.7 |
| 20260507201207 | 38 | 248 | 0.0 | 1.0 | 0.00 | 0.00 | 0.00 | 56 | 1017.7 |
| 20260507200504 | 38 | 248 | 0.0 | 0.0 | 0.00 | 0.00 | 0.00 | 56 | 1017.5 |
| 20260507195802 | 38 | 248 | 0.0 | 0.0 | 0.00 | 0.00 | 0.00 | 56 | 1017.6 |
| 20260507195111 | 38 | 248 | 0.0 | 0.0 | 0.00 | 0.00 | 0.00 | 55 | 1017.5 |
| 20260507194410 | 38 | 248 | 0.0 | 1.0 | 0.00 | 0.00 | 0.00 | 53 | 1017.5 |
| 20260507193708 | 38 | 248 | 0.0 | 0.0 | 0.00 | 0.00 | 0.00 | 52 | 1017.3 |
| 20260507193006 | 38 | 248 | 0.0 | 0.0 | 0.00 | 0.00 | 0.00 | 51 | 1017.3 |
| 20260507192306 | 39 | 248 | 0.0 | 0.0 | 0.00 | 0.00 | 0.00 | 51 | 1017.3 |
| 20260507191602 | 39 | 248 | 0.0 | 0.0 | 0.00 | 0.00 | 0.00 | 51 | 1017.1 |
| 20260507190911 | 40 | 248 | 0.0 | 0.0 | 0.00 | 0.00 | 0.00 | 50 | 1017.0 |
| 20260507190209 | 40 | 248 | 0.0 | 0.0 | 0.00 | 0.00 | 0.00 | 49 | 1017.0 |
| 20260507185506 | 41 | 248 | 0.0 | 0.0 | 0.00 | 0.00 | 0.00 | 48 | 1016.9 |
| 20260507184804 | 41 | 248 | 0.0 | 0.0 | 0.00 | 0.00 | 0.00 | 48 | 1016.9 |
| 20260507184101 | 42 | 248 | 0.0 | 0.0 | 0.00 | 0.00 | 0.00 | 47 | 1016.8 |
| 20260507183411 | 43 | 248 | 1.0 | 1.0 | 0.00 | 0.00 | 0.00 | 47 | 1016.7 |
| 20260507182710 | 43 | 248 | 0.0 | 0.0 | 0.00 | 0.00 | 0.00 | 47 | 1016.6 |
| 20260507182008 | 43 | 248 | 0.0 | 1.0 | 0.00 | 0.00 | 0.00 | 46 | 1016.6 |
| 20260507181306 | 44 | 248 | 0.0 | 0.0 | 0.00 | 0.00 | 0.00 | 45 | 1016.6 |
| 20260507180603 | 45 | 248 | 0.0 | 1.0 | 0.00 | 0.00 | 0.00 | 45 | 1016.5 |
| 20260507175913 | 46 | 248 | 0.0 | 1.0 | 0.00 | 0.00 | 0.00 | 44 | 1016.4 |
| 20260507175211 | 47 | 248 | 0.0 | 1.0 | 0.00 | 0.00 | 0.00 | 44 | 1016.4 |
| 20260507174507 | 47 | 248 | 0.0 | 2.0 | 0.00 | 0.00 | 0.00 | 44 | 1016.4 |
| 20260507173806 | 48 | 248 | 0.0 | 1.0 | 0.00 | 0.00 | 0.00 | 44 | 1016.3 |
| 20260507173104 | 48 | 248 | 0.0 | 2.0 | 0.00 | 0.00 | 0.00 | 43 | 1016.2 |
| 20260507172401 | 49 | 248 | 0.0 | 2.0 | 0.00 | 0.00 | 0.00 | 43 | 1016.2 |
| 20260507171711 | 49 | 248 | 0.0 | 0.0 | 0.00 | 0.00 | 0.00 | 43 | 1016.1 |
| 20260507171008 | 49 | 248 | 1.0 | 1.0 | 0.00 | 0.00 | 0.00 | 43 | 1016.1 |
| 20260507170306 | 49 | 248 | 0.0 | 0.0 | 0.00 | 0.00 | 0.00 | 43 | 1016.2 |
| 20260507165604 | 49 | 248 | 1.0 | 2.0 | 0.00 | 0.00 | 0.00 | 43 | 1016.0 |
| 20260507164901 | 49 | 248 | 0.0 | 0.0 | 0.00 | 0.00 | 0.00 | 42 | 1015.8 |
| 20260507164212 | 49 | 248 | 0.0 | 0.0 | 0.00 | 0.00 | 0.00 | 42 | 1015.8 |
| 20260507163510 | 50 | 248 | 0.0 | 1.0 | 0.00 | 0.00 | 0.00 | 41 | 1015.9 |
| 20260507162809 | 50 | 248 | 0.0 | 1.0 | 0.00 | 0.00 | 0.00 | 41 | 1015.7 |
| 20260507162108 | 50 | 248 | 0.0 | 0.0 | 0.00 | 0.00 | 0.00 | 40 | 1015.6 |
| 20260507161405 | 51 | 248 | 0.0 | 1.0 | 0.00 | 0.00 | 0.00 | 39 | 1015.6 |
| 20260507160702 | 52 | 248 | 0.0 | 1.0 | 0.00 | 0.00 | 0.00 | 37 | 1015.6 |
| 20260507160011 | 53 | 255 | 3.0 | 3.0 | 0.00 | 0.00 | 0.00 | 37 | 1015.5 |
| 20260507155310 | 54 | 251 | 0.0 | 3.0 | 0.00 | 0.00 | 0.00 | 34 | 1015.4 |
| 20260507154609 | 54 | 248 | 2.0 | 3.0 | 0.00 | 0.00 | 0.00 | 34 | 1015.4 |
| 20260507153908 | 55 | 31 | 1.0 | 2.0 | 0.00 | 0.00 | 0.00 | 33 | 1015.3 |
| 20260507153207 | 55 | 258 | 2.0 | 7.0 | 0.00 | 0.00 | 0.00 | 33 | 1015.4 |
| 20260507152504 | 55 | 269 | 1.0 | 3.0 | 0.00 | 0.00 | 0.00 | 33 | 1015.3 |
| 20260507151802 | 55 | 251 | 2.0 | 3.0 | 0.00 | 0.00 | 0.00 | 33 | 1015.3 |
| 20260507151111 | 56 | 256 | 2.0 | 6.0 | 0.00 | 0.00 | 0.00 | 32 | 1015.2 |
| 20260507150408 | 57 | 353 | 2.0 | 5.0 | 0.00 | 0.00 | 0.00 | 32 | 1015.3 |
| 20260507145706 | 58 | 247 | 1.0 | 2.0 | 0.00 | 0.00 | 0.00 | 30 | 1015.2 |
| 20260507145004 | 62 | 251 | 2.0 | 3.0 | 0.00 | 0.00 | 0.00 | 28 | 1015.3 |
| 20260507144302 | 68 | 248 | 3.0 | 5.0 | 0.00 | 0.00 | 0.00 | 27 | 1015.2 |
| 20260507143611 | 69 | 126 | 2.0 | 3.0 | 0.00 | 0.00 | 0.00 | 27 | 1015.1 |
| 20260507142908 | 66 | 296 | 3.0 | 3.0 | 0.00 | 0.00 | 0.00 | 27 | 1015.1 |
| 20260507142205 | 67 | 288 | 3.0 | 5.0 | 0.00 | 0.00 | 0.00 | 26 | 1015.2 |
| 20260507141504 | 74 | 248 | 2.0 | 3.0 | 0.00 | 0.00 | 0.00 | 25 | 1015.2 |
| 20260507140812 | 76 | 265 | 3.0 | 3.0 | 0.00 | 0.00 | 0.00 | 25 | 1015.2 |
| 20260507140110 | 77 | 356 | 2.0 | 5.0 | 0.00 | 0.00 | 0.00 | 25 | 1015.2 |